Regional Weather Roundup
Issued by NWS Grand Forks, ND

Home | Current Version | Previous Version | Text Only | Print | Product List | Glossary Off
Versions: 1 2 3 4 5 6 7 8 9 10 11 12 13 14 15 16 17 18 19 20 21 22 23 24 25 26 27 28 29 30 31 32 33 34 35 36 37 38 39 40 41 42 43 44 45 46 47 48 49 50

000
ASUS43 KFGF 230310
RWRFGF
PRAIRIE TO PINES  WEATHER ROUNDUP
NATIONAL WEATHER SERVICE EASTERN NORTH DAKOTA/GRAND FORKS ND
1000 PM CDT SUN OCT 22 2017

 **SATELLITE DATA USED TO AUGMENT SKY COVER AT AUTOMATED STATIONS**
 *****  WEATHER ACROSS EASTERN NORTH DAKOTA  *****

CITY           SKY/WX    TMP DP  RH WIND       PRES   REMARKS
GRAND FORKS    FAIR      52  39  61 SE9       29.61F
GRAND FRKS AFB CLEAR     52  37  58 S7        29.60F
DEVILS LAKE    LGT RAIN  53  38  56 S12       29.58F
FARGO          FAIR      58  32  37 S14       29.67F
WAHPETON ARPT  NOT AVBL
$$

 ***** WEATHER ACROSS CENTRAL AND WESTERN NORTH DAKOTA  *****

CITY           SKY/WX    TMP DP  RH WIND       PRES   REMARKS
BISMARCK       FAIR      60  40  47 W18       29.70R
MINOT          MOCLDY    56  40  55 SW15      29.59R
JAMESTOWN      LGT RAIN  57  36  45 S16       29.64S
MINOT AFB      MOCLDY    52  40  62 W13       29.56R
GARRISON         N/A     48  46  93 W12       29.64S
WILLISTON      PTCLDY    54  39  58 W13       29.69R
DICKINSON      FAIR      52  36  54 W23G33    29.76R
HETTINGER      MOCLDY    47  41  80 W12       29.86R
$$

 *****  OTHER AIRPORT OBSERVATIONS IN OUR AREA  *****

CITY           SKY/WX    TMP DP  RH WIND       PRES   REMARKS
WALHALLA       FAIR     N/A N/A N/A SW9       29.56S
GRAFTON AIRPOR NOT AVBL
VALLEY CITY AR NOT AVBL
CANDO          MOCLDY    48  41  76 S10       29.57F
CAVALIER APRT  FAIR      52  43  71 SW7G17    29.57S
GWINNER        CLEAR     55  30  38 S14G21    29.70F
SHEYENNE NWR     N/A     59  30  33 SW10      29.95S
ROLLA          FAIR      39  39 100 SW8       29.54F
 ***** THE ABOVE OBSERVATIONS ARE NON NWS ARE NOT QUALITY
       CONTROLLED AND MAY MIS-REPORT RAIN FOR SNOW...
$$

  *****  WEATHER ACROSS NORTHERN MINNESOTA  *****

CITY           SKY/WX    TMP DP  RH WIND       PRES   REMARKS
FLAG ISLAND    LGT RAIN  54  39  58 SW15      29.61S
WARROAD        MOCLDY    55  41  58 SW8       29.63F
ROSEAU         MOCLDY    55  41  58 S10       29.61F
HALLOCK        CLOUDY    52  45  76 S8        29.58F
THF RVR FALLS  CLOUDY    56  40  55 SW10      29.65F
BAUDETTE       CLOUDY    55  33  43 S12       29.65F
WASKISH        MOCLDY    55  34  44 S8        29.69
CROOKSTON      FAIR      52  39  62 S9        29.65F
STEPHEN NDAWN    N/A     52  39  62 S6          N/A
GREENBUSH NDAW   N/A     52  43  71 SW8         N/A
$$
  *****  WEATHER ACROSS CENTRAL AND WEST MINNESOTA  *****

CITY           SKY/WX    TMP DP  RH WIND       PRES   REMARKS
FOSSTON        CLOUDY    55  30  38 S10       29.69F
BEMIDJI        MOCLDY    55  32  41 S7        29.72F
PARK RAPIDS    CLOUDY    55  34  45 S12       29.75F
ELBOW LAKE     CLOUDY    56  36  47 S12       29.77F
WADENA         FAIR      54  36  50 S9        29.77S
DETROIT LAKES  FAIR      59  32  36 SW13G20   29.74F
MOORHEAD       FAIR      59  30  33 S15G21    29.70F
FERGUS FALLS   CLOUDY    57  34  41 S13       29.75F
MORRIS MN      MOCLDY    55  37  50 S7        29.79S
STAPLES        MOCLDY    54  32  43 S9        29.79F
$$
  *****  WEATHER ELSEWHERE ACROSS MINNESOTA  *****

CITY           SKY/WX    TMP DP  RH WIND       PRES   REMARKS
DULUTH         MOCLDY    52  31  44 S12       29.85F
INTRNTL FALLS  CLOUDY    53  31  42 VRB5      29.70F
ELY            FAIR      48  28  46 S5        29.82S
CLOQUET        FAIR      52  28  40 S6        29.85F
WHEATON        MOCLDY    57  32  38 S9        29.77F
BRAINERD       CLOUDY    56  32  40 S10       29.81F
HIBBING        CLOUDY    49  29  46 S6        29.81F
ALEXANDRIA     CLOUDY    57  35  43 S15       29.81F
SAINT CLOUD    CLOUDY    54  35  48 S10       29.85F
MINNEAPOLIS    MOCLDY    57  33  40 S10       29.91F
$$

  *****  WEATHER ACROSS SOUTH DAKOTA  *****

CITY           SKY/WX    TMP DP  RH WIND       PRES   REMARKS
SIOUX FALLS    MOCLDY    59  32  36 S10       29.86F
BROOKINGS      CLOUDY    53  33  46 S9        29.85S
WATERTOWN      CLOUDY    54  37  52 S9        29.79F
HURON          FAIR      57  34  41 S13       29.79F
SISSETON         N/A     60  33  36 SW10      29.74F
ABERDEEN       MOCLDY    57  34  41 S10       29.74F
MITCHELL       MOCLDY    57  35  43 S7        29.84S
PIERRE         LGT RAIN  58  35  42 W8        29.79R
MOBRIDGE       FAIR      55  45  68 S3        29.73F
RAPID CITY     FAIR      62  31  31 NW17      29.89R
$$

  *****  SOME WEATHER IN NEARBY STATES *****

CITY           SKY/WX    TMP DP  RH WIND       PRES   REMARKS
GLASGOW MT     LGT RAIN  47  39  74 W32G47    29.84R
GREAT FALLS MT FAIR      44  22  41 W21       30.08R
CHEYENNE WY    FAIR      54  26  34 VRB5      30.14S
SCOTTSBLUFF NE FAIR      61  29  29 W17       30.00F
OMAHA NE       FAIR      53  35  50 S9        29.97F
DES MOINES IA  FAIR      51  41  68 S10       30.02F
DAVENPORT IA   FAIR      50  48  93 CALM      30.07F
CHICAGO IL     LGT RAIN  52  50  93 NW7       30.04R
EAU CLAIRE WI  FAIR      48  42  80 S10       29.97S
LA CROSSE WI   FAIR      49  44  83 S7        30.01S
$$

  *****  SOME NATIONAL WEATHER *****

CITY           SKY/WX    TMP DP  RH WIND       PRES   REMARKS
LA GUARDIA NY  MOCLDY    64  56  75 S5        30.38R
RALEIGH NC     MOCLDY    66  60  81 SE7       30.29F
ATLANTA GA     DRIZZLE   68  67  96 E13G21    30.15R
NEW ORLEANS LA FAIR      67  63  87 NW9       30.04R
OKLAHOMA CITY  FAIR      51  41  68 S6        30.13F
ALBUQUERQUE NM FAIR      62  24  23 N9        30.36S
SALT LAKE CITY MOCLDY    60  32  34 SE6       30.34S
LOS ANGELES CA FAIR      69  56  62 W9        30.06R
BOISE ID       CLOUDY    53  47  79 S3        30.39R
SEATTLE WA     MOCLDY    54  48  80 S12       30.39R
$$

*** WEATHER ACROSS MANITOBA...SASKATCHEWAN AND ONTARIO ***
                ***ONTARIO***

CITY           SKY/WX    TMP DP  RH WIND       PRES   REMARKS
GERALDTON      CLEAR     43  39  87 S9        29.82F
THUNDER BAY    CLEAR     37  36  93 CALM      29.86S
SIOUX LOOKOUT  CLOUDY    48  32  53 S8        29.67S
TORONTO        MOCLDY    59  54  82 SE2       30.11F
BIG TROUT LK   CLOUDY    43  36  75 W15G29    29.44R
PICKLE LAKE    NOT AVBL
DRYDEN         CLOUDY    52  32  46 S15G23    29.65S
KENORA         CLOUDY    54  36  50 SW13      29.61F
$$
                *** MANITOBA***

CITY           SKY/WX    TMP DP  RH WIND       PRES   REMARKS
BRANDON        CLEAR     41  37  87 SW9       29.48F
DAUPHIN        CLOUDY    43  41  93 VRB2      29.53R
ISLAND LAKE    NOT AVBL
PILOT MOUND      N/A     45  39  81 S13         N/A
THE PAS        CLOUDY    39  32  75 W9        29.56R
THOMPSON       FLURRIES  34  32  93 W14       29.40R WCI  24
WINNIPEG       MOCLDY    52  36  54 S9        29.53F
LYNN LAKE      CLOUDY    32  30  93 NW13G20   29.47R WCI  22
CHURCHILL      LGT SNOW  32  32 100 NW35      28.93R VSB 1   WCI  17
GILLAM         FLURRIES  34  32  93 W21G30    29.20R WCI  22
$$
                ***SASKATCHEWAN***

CITY           SKY/WX    TMP DP  RH WIND       PRES   REMARKS
ESTEVAN        PTCLDY    46  32  57 W16G22    29.61R
KINDERSLEY     MOCLDY    39  32  75 NW12G21   29.78R
LLOYDMINSTER   MOCLDY    37  32  81 W13       29.74R
PRINCE ALBERT  CLOUDY    36  34  93 N5        29.69R FOG
REGINA         PTCLDY    37  34  87 NW14G20   29.66R
YORKTON        LGT RAIN  39  39 100 NW10      29.57R
N. BATTLEFORD  MOCLDY    37  32  81 NW10      29.74R
LA RONGE       MOCLDY    32  30  93 W13G18    29.66R WCI  22
SASKATOON      CLOUDY    37  37 100 W10       29.70R
SWIFT CURRENT  PTCLDY    43  30  61 W14G20    29.75R
$$
NOTE: THESE ARE AUTOMATED STATIONS WITH LIMITED QUALITY CONTROL
      "FAIR" INDICATES FEW OR NO CLOUDS BELOW 12,000 FEET WITH NO
      SIGNIFICANT WEATHER AND/OR OBSTRUCTIONS TO VISIBILITY.
      SKY/WX - SKY CONDITION AND SIGNIFICANT WEATHER.
      TMP - AIR TEMPERATURE.    DP   - DEWPOINT TEMPERATURE.
      RH  - RELATIVE HUMIDITY.  PRES - PRESSURE.
      HX  - HEAT INDEX.         WCI  - WIND CHILL INDEX.
$




USA.gov is the U.S. government's official web portal to all federal, state and local government web resources and services.